Theta_e
310 309 310 310 309 308 309 310 310 310 309 307 305 303 303 303 303 303 303 303 303 304 305 305 305 306 306 306 306 306 307 306 307 306 307 308 307 308 307 308 311 312 313 312 311 310 310 310 308 307 310 314 316 316 316 317 316 314 316 316 315 315 314 317 319 315 314 315 315 314 313 314 318 329 337 338 338 341 341 339 339 341 339 340 341 344 346 346
310 310 309 310 310 309 310 311 311 311 311 311 309 305 303 303 303 303 304 303 303 304 305 305 305 305 306 306 306 306 306 306 306 307 310 310 309 308 308 309 311 312 312 311 310 309 309 309 308 310 313 316 316 316 315 315 315 314 316 316 314 315 314 315 316 314 314 315 315 313 314 314 315 324 332 340 340 339 344 343 341 342 343 343 344 345 346 345
309 310 310 310 310 310 312 312 312 311 311 311 312 309 305 302 303 303 303 304 303 303 304 305 305 305 305 306 305 306 306 307 310 312 314 313 311 308 308 308 309 311 312 311 311 309 309 309 311 312 314 315 315 315 314 314 314 313 314 315 315 316 315 313 313 314 314 314 314 313 314 315 315 317 328 339 339 340 346 345 342 343 343 344 345 346 346 346
307 309 310 311 310 311 312 312 312 311 311 310 311 312 310 304 302 303 303 304 303 303 303 304 305 304 305 305 305 305 305 311 316 316 316 316 313 310 307 309 309 310 311 310 310 309 308 310 313 313 313 313 313 314 314 313 313 312 313 315 315 313 313 314 314 314 314 314 313 314 314 314 316 315 327 338 340 343 343 340 340 342 343 344 346 346 345 346
304 307 309 310 311 311 311 312 312 311 310 310 310 312 313 308 303 302 303 303 303 303 302 303 303 304 304 304 304 304 307 317 320 316 317 317 315 312 308 308 310 311 311 310 310 309 308 311 313 312 312 312 313 313 313 314 313 312 311 312 313 311 312 314 314 314 314 315 313 313 314 315 315 317 328 336 341 343 338 336 335 335 340 343 345 345 345 346
303 305 306 309 310 311 311 311 312 311 310 310 309 310 312 311 306 302 302 303 304 304 303 303 303 303 304 303 305 306 310 319 319 316 317 317 318 314 309 309 309 311 311 311 311 310 309 310 312 311 311 312 312 313 313 314 312 314 313 311 311 311 312 313 313 314 314 315 313 313 314 315 315 316 325 330 332 330 328 333 334 333 337 341 344 345 345 346
303 303 304 306 308 310 311 311 311 311 311 310 309 310 311 311 308 303 302 303 303 304 303 303 303 303 303 304 306 308 311 315 316 317 317 318 318 315 311 309 310 311 311 311 311 311 309 310 311 311 311 312 312 312 313 313 311 313 314 312 312 312 311 313 313 313 314 314 313 314 314 315 315 315 320 324 323 322 326 333 335 337 342 343 344 344 345 346
303 303 303 304 305 307 309 311 311 311 311 310 309 310 310 311 310 307 304 303 303 304 303 303 303 303 303 304 307 311 311 314 316 318 317 316 316 314 311 310 310 311 310 310 310 310 310 309 311 312 313 314 313 312 312 312 311 312 313 311 311 312 311 313 313 313 313 313 314 314 313 314 315 315 320 325 325 327 330 335 338 341 343 343 344 343 344 345
302 303 303 303 304 305 307 309 311 311 311 310 309 310 310 311 312 310 307 304 304 304 303 303 304 304 304 305 309 313 314 316 316 315 315 314 313 312 310 309 309 309 309 309 310 308 309 310 311 313 314 314 312 312 311 312 312 311 312 310 310 312 312 313 312 312 312 313 314 313 314 315 314 318 327 332 333 335 335 337 341 342 343 343 343 342 343 343
302 303 303 303 303 303 304 307 309 311 311 310 309 309 310 311 312 312 310 308 305 304 304 304 303 304 304 306 310 314 315 317 315 313 314 312 311 310 310 310 309 308 308 308 308 308 310 312 313 314 315 314 312 311 310 311 312 311 311 311 311 311 311 312 311 312 312 313 314 314 315 315 314 320 330 336 339 339 338 341 341 342 343 342 343 342 342 342
302 302 303 303 303 303 303 304 307 309 310 310 310 309 309 309 311 312 312 311 307 305 304 304 304 304 305 306 310 315 316 316 315 313 313 311 309 309 308 309 308 308 308 308 309 311 313 314 315 315 315 314 312 311 311 311 312 312 312 312 313 311 310 311 311 312 312 313 314 313 314 312 312 319 326 336 341 340 338 341 342 342 342 342 343 343 343 342
302 302 303 303 303 303 303 303 305 307 309 310 310 309 308 308 309 311 312 312 310 308 305 305 304 304 305 306 309 314 314 315 315 314 313 309 308 308 308 308 308 308 308 309 311 313 314 314 315 315 314 314 313 312 313 313 313 313 313 314 316 313 312 311 312 313 313 314 314 313 314 314 316 317 321 336 342 341 340 341 342 342 342 342 343 343 342 343
301 301 302 303 303 303 303 303 304 305 307 309 310 309 308 308 308 309 311 312 312 311 309 307 305 304 306 309 311 313 314 315 316 315 312 309 307 308 308 308 308 308 308 311 314 314 314 314 314 315 314 314 313 312 313 313 312 314 313 313 315 315 316 313 311 313 313 314 314 313 314 318 321 312 320 340 343 342 341 341 342 342 342 342 342 342 342 343
301 301 302 303 303 303 303 303 303 304 306 308 309 309 309 308 308 308 310 312 312 311 311 309 307 307 309 312 312 313 314 314 316 314 312 310 310 309 308 308 308 308 309 312 314 314 314 314 314 314 313 313 313 312 314 314 313 314 313 314 315 312 317 315 310 313 314 313 314 314 313 318 319 311 324 342 342 342 342 341 342 341 342 341 342 343 342 342
302 301 302 303 304 303 303 303 303 303 304 306 307 308 309 308 308 308 309 311 312 312 311 311 310 310 311 313 310 314 315 315 315 314 312 312 312 312 311 310 311 311 312 313 314 314 313 313 313 312 313 313 313 313 316 318 319 316 312 320 321 313 315 316 312 313 314 313 313 314 314 316 315 314 329 343 340 342 341 340 342 341 342 341 341 342 341 341
303 302 301 302 303 304 304 303 304 303 303 304 305 307 308 308 308 308 310 311 312 312 311 311 311 311 314 315 313 315 315 315 315 313 313 312 312 314 314 313 314 313 313 314 314 314 314 313 312 312 311 311 314 319 321 320 325 324 315 319 323 316 314 315 313 312 312 313 313 313 315 317 316 314 328 341 339 341 340 339 341 340 341 341 341 341 341 341
304 303 302 302 303 304 305 304 304 304 304 304 304 305 307 308 309 310 313 314 313 313 312 312 312 311 314 315 313 315 316 316 315 314 313 312 312 313 313 314 314 313 314 314 313 314 313 313 312 313 315 316 318 322 320 317 322 327 323 320 322 318 314 315 316 312 311 313 313 314 314 317 319 313 321 338 339 338 339 338 340 340 340 340 339 340 341 341
304 304 303 302 302 303 305 305 305 305 305 305 306 308 309 310 312 315 318 318 315 313 312 312 311 311 313 312 313 315 316 316 316 315 313 311 312 312 313 313 313 314 313 312 312 313 312 311 312 316 318 317 318 319 318 319 320 321 321 320 321 320 316 315 316 314 313 313 313 314 314 315 318 314 319 334 338 337 338 337 339 340 340 339 338 339 340 341
303 304 304 303 303 303 305 306 306 307 307 309 310 310 311 313 316 319 320 318 315 313 313 312 310 312 314 312 313 314 315 316 316 315 313 312 312 313 314 313 313 313 311 311 313 311 311 311 312 315 316 316 317 317 318 321 321 317 317 317 318 319 317 316 316 316 315 315 314 314 315 315 315 314 318 330 335 335 336 336 337 339 339 339 338 337 340 340
303 303 304 304 304 303 304 305 307 308 309 311 311 310 311 313 316 320 319 317 315 315 315 315 313 313 314 313 313 314 315 316 315 314 313 313 313 313 314 312 313 312 311 314 315 312 311 313 315 315 318 321 322 321 319 318 316 314 315 317 317 317 317 315 316 316 315 315 315 313 314 315 315 317 319 325 333 333 333 334 336 338 338 338 337 337 340 340
303 302 303 304 304 304 304 304 306 308 310 311 310 310 311 312 314 317 317 315 315 316 315 316 315 314 314 314 314 315 315 316 315 313 312 312 313 312 312 312 312 313 312 312 313 313 312 313 317 319 322 323 322 322 320 316 316 315 316 318 317 317 317 316 316 317 316 314 315 315 314 314 318 322 319 321 330 331 331 333 335 337 337 336 336 337 339 340
302 302 303 303 303 304 304 304 304 306 308 309 310 311 312 313 313 314 314 315 315 315 316 316 315 315 315 314 315 315 315 316 316 314 312 312 312 312 311 313 313 315 314 312 312 314 313 316 318 318 318 315 316 322 321 319 318 318 318 317 317 318 317 317 321 324 320 315 316 317 315 317 324 327 321 320 326 329 330 333 335 336 336 336 336 336 338 339
302 302 302 302 303 303 304 305 304 305 306 307 311 312 312 315 315 314 314 315 316 316 316 316 315 315 315 314 315 315 315 317 316 315 314 311 312 312 311 312 312 314 315 314 315 314 314 319 318 315 316 314 315 321 322 320 319 320 318 315 317 318 315 316 322 327 325 320 319 321 321 326 331 327 321 317 319 325 329 333 336 336 336 336 336 337 337 338
302 302 302 302 303 303 304 304 304 304 305 309 313 312 312 315 316 316 316 316 317 316 315 316 316 315 314 314 315 316 316 316 316 316 314 312 312 311 312 312 312 312 313 315 318 315 315 316 314 316 319 318 316 318 319 318 320 327 324 316 318 319 315 316 321 327 333 328 326 329 327 328 329 326 322 317 317 324 327 331 334 334 335 335 335 336 337 338
302 302 302 302 302 303 303 304 306 307 307 310 311 309 312 315 314 315 317 318 319 318 316 317 317 315 314 314 315 316 316 316 316 315 315 313 312 312 312 311 311 313 313 314 315 315 314 313 311 314 319 319 317 318 321 319 319 327 328 324 321 320 319 319 322 327 331 326 322 324 321 322 328 328 325 323 322 324 326 329 332 332 333 334 334 335 335 335
301 302 302 302 303 303 302 304 307 307 307 309 309 307 311 315 314 315 319 323 324 322 319 317 316 316 314 315 315 315 316 316 316 316 315 314 312 312 312 311 312 313 313 313 314 316 316 314 313 315 317 319 318 317 321 321 318 319 326 330 323 319 319 320 324 325 323 321 320 322 324 325 329 327 323 324 322 324 325 328 330 330 331 332 332 333 333 333
302 301 302 302 302 303 302 304 304 306 309 313 312 308 310 313 312 314 321 324 325 323 319 315 314 315 314 315 315 315 317 317 316 316 315 314 313 312 313 314 312 311 312 312 314 317 317 316 318 317 316 319 319 318 322 320 318 319 326 329 322 319 318 321 327 323 320 322 323 329 330 324 326 326 322 322 319 320 325 328 328 327 329 330 330 331 332 333
301 301 302 302 302 302 302 303 303 307 314 318 315 311 312 312 310 316 322 318 317 318 316 314 313 314 314 315 315 316 317 317 315 316 315 314 313 312 313 314 313 313 314 312 316 319 317 316 319 319 317 317 318 322 323 317 316 324 326 322 318 319 321 326 330 325 323 321 320 331 327 317 328 335 325 321 317 318 321 325 327 326 326 328 328 329 331 333
301 301 302 301 301 302 302 303 304 309 315 318 315 314 313 311 310 319 320 316 314 315 314 314 315 314 314 314 314 315 316 315 315 316 315 314 313 313 313 312 312 314 312 311 317 320 317 314 316 317 317 318 320 322 321 317 318 322 321 318 319 322 325 330 329 325 328 323 319 330 326 316 329 340 331 319 316 321 323 323 322 322 325 327 327 329 329 331
300 301 301 301 302 302 302 303 303 308 313 314 316 316 311 312 319 321 318 317 317 315 313 313 315 313 313 313 313 314 315 314 315 313 313 313 313 313 313 312 311 314 316 317 317 317 315 313 314 315 315 317 319 317 315 315 317 316 316 318 319 322 327 332 333 327 324 323 322 329 327 318 323 334 333 322 316 321 324 322 319 318 323 327 326 327 328 328
300 300 301 301 302 301 302 303 303 307 310 310 314 315 310 315 324 323 321 318 317 318 314 312 315 314 314 313 313 314 314 314 314 313 314 313 313 313 313 313 313 316 321 321 318 317 315 313 315 315 314 314 314 314 311 311 314 316 319 320 317 321 325 329 332 326 321 323 326 329 325 318 321 327 327 325 324 323 320 322 321 317 319 325 327 326 327 327
300 300 301 301 301 301 302 302 303 307 308 307 311 313 314 316 318 322 324 319 320 322 316 313 315 315 314 314 314 314 314 315 314 314 315 314 314 314 313 316 317 315 318 321 319 319 318 316 316 314 313 313 313 315 312 312 316 317 320 321 318 319 321 324 326 323 323 324 323 326 322 316 324 328 323 324 326 322 317 317 318 314 316 324 327 326 326 326
300 300 300 301 301 302 302 302 303 303 304 307 311 315 320 318 315 321 323 316 318 319 314 315 315 314 315 315 315 315 314 316 316 314 315 313 314 314 311 316 319 315 318 322 318 316 318 320 317 313 314 314 313 316 314 315 317 316 319 321 319 319 318 321 322 318 321 322 319 322 319 317 325 324 321 323 320 316 313 313 315 314 316 323 326 326 326 326
300 301 300 301 301 301 303 302 302 303 302 306 314 318 318 316 317 321 321 318 318 316 315 316 314 314 315 315 318 317 315 316 317 314 315 314 315 316 314 313 314 315 319 319 316 317 318 320 320 317 314 313 313 315 317 321 318 314 317 317 317 322 321 320 321 319 319 321 320 318 316 321 323 316 318 319 314 314 316 317 319 319 321 325 326 326 326 326
300 301 300 301 301 302 303 302 302 302 301 307 319 320 315 315 318 321 322 321 319 315 315 313 312 315 316 316 318 316 315 317 316 314 314 315 317 319 319 314 313 317 318 317 319 317 314 318 323 318 312 312 312 312 314 318 315 312 313 313 315 321 325 320 316 321 325 323 320 317 318 327 322 316 318 316 314 317 318 320 321 321 323 325 325 325 325 325
300 301 300 301 302 303 303 302 302 302 302 310 320 319 316 317 318 318 319 318 314 313 314 313 314 316 317 317 318 315 314 316 315 314 314 313 315 317 317 316 314 313 315 320 323 318 313 317 321 315 312 313 312 311 311 312 314 314 311 314 315 315 324 323 314 319 325 322 320 318 318 325 321 316 318 317 320 323 320 320 321 321 323 324 324 325 325 326
301 301 301 304 307 306 303 302 302 301 303 311 317 318 320 319 316 316 316 313 312 312 312 313 316 317 316 319 319 316 314 315 315 315 316 315 315 316 315 314 313 311 313 318 320 319 318 319 320 315 313 313 309 309 312 309 312 316 313 314 315 311 319 325 321 321 320 318 324 319 315 319 318 318 321 319 320 323 322 322 320 320 323 323 323 325 325 326
303 302 303 307 310 308 305 303 301 301 306 313 318 321 320 317 314 315 313 312 312 311 310 312 316 316 316 318 320 317 315 318 316 315 317 316 315 317 314 312 313 311 311 312 314 317 317 318 320 317 313 313 312 312 317 313 309 312 312 311 314 315 318 318 319 321 317 316 321 317 315 317 314 316 320 319 319 320 320 321 321 321 321 321 323 324 324 325
306 303 304 309 310 306 304 302 301 304 310 316 319 320 317 316 315 314 313 312 311 311 312 313 314 314 316 319 321 318 316 320 320 317 317 315 316 318 314 312 313 310 310 311 314 319 319 317 319 318 313 312 315 317 319 317 313 312 313 312 314 321 321 315 316 319 320 319 317 316 317 317 317 319 319 319 321 319 317 320 322 320 319 320 322 323 323 324
307 304 305 310 309 306 305 304 304 309 314 317 318 319 316 315 315 313 312 313 310 311 314 313 311 313 315 317 318 317 318 322 321 317 316 315 317 318 314 313 314 312 310 310 314 322 319 313 316 322 316 312 316 317 313 314 314 312 316 316 312 313 314 313 313 314 320 323 322 320 317 317 323 323 318 318 320 318 317 320 320 317 318 320 321 321 323 323
309 307 308 310 310 310 310 309 311 315 318 317 317 317 316 314 314 314 313 312 311 311 311 311 311 312 313 313 314 316 317 318 317 315 314 314 317 318 314 312 312 312 313 313 316 321 318 316 323 327 319 313 314 313 311 311 310 310 314 313 311 311 313 315 313 312 319 324 324 323 318 318 324 320 315 318 317 314 315 317 317 316 317 320 320 322 323 323
310 310 309 310 311 312 313 314 314 315 319 319 317 316 316 314 314 314 312 311 311 311 310 310 311 311 311 312 314 315 315 314 314 315 315 314 316 316 312 311 311 312 316 315 313 316 321 325 326 321 315 313 311 309 310 309 308 311 312 311 315 316 317 323 322 318 318 316 316 321 319 322 325 317 313 316 314 312 313 314 315 316 318 320 321 323 323 324
310 310 309 309 311 313 315 317 314 315 318 317 314 314 314 314 313 312 311 311 311 310 310 310 311 311 310 311 313 313 314 314 313 314 315 314 314 313 311 312 313 314 317 317 312 314 320 322 320 318 317 316 313 312 312 310 311 313 311 311 314 311 315 326 326 324 322 314 315 320 318 321 323 315 310 311 312 313 313 315 316 316 318 319 320 322 323 323
309 309 308 309 311 313 314 314 312 315 319 315 312 312 312 311 311 311 310 310 310 309 311 312 312 310 309 312 313 311 312 313 313 313 315 315 313 311 312 313 313 316 317 315 314 315 315 316 317 317 315 312 314 317 317 314 313 312 310 312 311 309 317 321 317 324 324 312 316 323 319 318 317 311 309 310 312 314 313 315 317 317 319 319 320 321 322 322
309 310 307 306 308 310 311 310 309 313 316 315 313 311 310 310 310 309 309 309 308 308 310 311 310 309 310 313 314 312 311 313 314 314 315 316 314 311 312 313 312 315 316 313 313 315 315 318 323 322 316 314 317 320 320 315 311 311 311 312 312 313 316 314 314 326 323 312 318 325 320 317 314 311 311 310 312 314 313 313 317 318 318 319 319 320 320 321
309 310 308 307 306 306 307 307 308 309 311 313 313 309 308 309 309 308 308 308 307 307 307 307 307 311 314 314 315 314 311 312 314 313 313 315 316 311 309 314 314 314 316 312 310 317 322 319 322 325 321 319 320 317 315 313 312 311 310 310 313 315 317 320 321 323 320 317 318 317 315 317 314 311 311 310 310 312 311 311 314 316 317 318 318 319 319 319
307 307 307 307 306 306 306 307 307 307 308 310 311 307 307 308 307 308 308 308 307 307 308 305 304 310 314 314 316 315 312 312 312 312 311 311 315 312 308 310 311 311 314 309 307 320 328 318 314 318 315 313 314 311 308 309 308 308 309 311 313 316 321 327 322 313 315 322 317 310 314 318 313 310 310 310 309 310 308 309 311 313 314 315 316 318 318 318
306 305 304 306 306 306 307 307 307 306 305 308 308 306 307 307 306 307 308 308 307 307 311 308 304 305 306 309 315 315 313 315 314 312 311 310 313 315 312 310 309 307 310 310 308 319 327 316 309 312 311 308 310 308 306 308 307 307 311 313 313 315 318 318 313 310 316 323 315 309 312 313 308 307 308 307 307 308 308 308 310 311 313 314 315 316 316 316
304 304 304 304 305 305 305 305 305 305 304 306 307 305 306 307 307 305 305 309 310 307 309 308 304 303 303 306 311 311 310 314 313 311 310 309 311 314 312 312 310 305 309 314 311 312 319 316 311 313 312 309 308 307 306 307 308 309 311 310 309 312 313 313 310 309 312 314 309 308 310 309 306 305 306 305 305 306 307 308 310 310 311 313 314 313 312 313
303 303 303 303 303 302 303 303 304 305 304 305 305 304 304 304 306 305 304 308 310 307 307 307 304 303 302 303 307 307 306 308 309 309 309 309 312 312 309 310 308 305 310 316 312 310 315 314 315 320 317 309 308 307 306 308 309 310 311 309 309 310 311 312 310 309 310 308 306 308 310 308 305 303 304 303 303 304 305 306 308 308 308 310 311 310 310 310
303 303 303 304 302 301 301 302 303 304 304 303 303 303 303 303 304 305 304 304 305 306 307 306 304 303 303 303 305 305 304 304 306 307 306 307 308 308 307 308 307 305 310 314 312 314 317 313 314 321 317 309 308 307 307 309 309 310 312 310 310 312 311 309 307 308 309 308 307 310 310 307 305 303 303 302 302 302 302 303 304 305 307 308 308 308 308 308
303 303 303 303 302 300 300 301 302 303 303 303 302 302 302 302 302 305 307 304 302 303 304 303 304 305 304 304 304 303 302 302 304 304 303 304 305 305 305 306 305 304 307 311 310 314 321 317 313 317 316 310 309 308 311 314 311 311 312 308 306 307 306 305 304 304 305 307 309 310 307 304 303 303 303 302 301 301 301 301 302 302 304 306 307 306 305 305
Wind_Speed
9 9 10 10 9 9 8 9 9 9 9 9 10 9 8 8 9 9 9 9 9 9 8 7 7 7 7 8 9 9 10 10 11 14 15 9 5 10 10 12 16 16 14 12 11 9 12 12 9 8 10 8 6 5 5 7 6 4 2 2 3 3 3 4 5 3 2 4 7 12 13 4 2 6 11 9 12 17 14 4 10 11 5 18 17 20 35 31
9 9 9 9 9 8 8 8 9 9 10 10 10 9 8 8 8 8 9 9 9 8 7 7 7 7 8 8 9 10 10 10 12 14 9 3 4 8 11 15 17 17 15 13 10 8 10 11 8 9 10 7 5 5 5 5 7 6 3 2 4 4 5 5 6 4 3 5 9 13 15 5 1 4 9 5 6 10 7 4 7 8 9 15 17 28 35 32
8 8 9 9 8 8 7 8 8 9 10 11 11 10 9 7 7 8 9 9 9 8 7 7 7 8 8 8 9 10 10 11 12 8 1 3 1 4 10 16 18 17 15 13 11 8 9 9 8 8 6 4 5 5 4 4 6 7 4 2 5 5 5 8 11 12 12 10 8 11 16 8 3 1 7 5 5 3 4 7 8 12 18 20 25 34 34 33
9 8 8 8 8 8 7 8 8 9 10 10 11 11 10 8 7 7 8 9 9 8 7 7 7 8 8 8 9 9 10 11 7 4 4 3 3 1 9 15 16 17 16 14 12 10 9 8 7 5 3 2 4 4 4 6 5 4 5 4 5 4 3 12 16 15 16 12 8 10 14 10 6 1 8 10 7 2 7 16 16 20 26 28 33 35 34 34
9 9 9 8 8 8 8 7 8 9 9 10 11 11 10 9 8 7 8 8 8 8 7 7 7 8 8 8 8 7 8 6 3 6 2 2 3 1 7 14 16 15 16 15 13 10 9 9 7 3 2 1 2 1 4 9 7 2 4 7 7 4 3 14 15 12 14 12 10 9 8 9 6 2 14 15 7 5 12 21 23 26 30 33 36 36 36 35
10 10 9 9 9 8 8 8 8 8 9 9 10 11 11 10 9 8 8 8 8 7 7 7 6 7 8 8 8 6 4 0 3 2 2 2 1 1 6 13 16 15 16 16 13 10 9 10 7 3 3 1 2 3 6 9 7 3 5 6 11 8 6 16 16 11 12 10 7 4 5 9 6 1 13 17 9 9 13 21 23 24 29 35 38 38 37 36
10 10 10 10 9 9 9 9 8 8 8 9 9 10 11 11 10 9 8 8 8 7 7 6 6 7 7 7 7 6 7 7 3 3 3 2 3 3 6 12 15 16 17 17 15 11 9 10 9 5 2 1 3 6 9 9 7 6 5 5 13 13 12 21 22 18 16 13 13 9 5 6 5 3 5 9 9 11 12 19 24 25 31 36 37 36 35 33
9 10 10 10 10 10 10 9 9 8 8 8 9 9 10 11 11 10 9 8 8 7 7 6 6 6 6 7 6 8 10 8 3 2 3 3 4 5 7 12 15 16 18 18 16 11 10 11 11 7 3 2 4 5 6 5 3 5 6 7 10 13 16 24 24 22 21 19 22 15 6 9 10 4 2 7 10 7 11 20 25 27 33 35 35 34 32 33
9 9 10 10 10 11 11 10 9 9 8 8 8 9 10 10 10 10 10 9 8 7 7 7 6 6 6 6 6 7 7 5 3 3 4 6 6 7 8 12 14 17 17 16 14 12 12 13 13 9 4 5 5 5 4 3 3 6 10 10 7 11 18 22 19 19 18 17 17 10 6 13 11 3 2 6 5 6 15 23 26 29 32 32 32 33 34 35
9 8 9 9 9 10 11 11 10 9 8 8 8 8 9 10 10 10 10 10 9 8 7 7 7 6 6 6 4 2 3 4 4 4 6 8 7 8 9 11 13 16 16 15 15 15 14 13 12 8 5 6 5 5 3 4 3 4 8 9 10 16 20 17 15 17 14 11 13 8 7 12 6 5 2 2 6 13 21 25 27 29 31 30 32 34 35 35
9 9 9 9 9 10 11 11 10 9 9 8 8 8 9 9 10 10 10 9 9 8 8 7 8 7 7 7 5 4 3 4 3 4 7 8 5 6 8 10 12 14 15 15 17 17 15 11 8 5 3 4 4 4 4 5 6 9 8 7 11 14 15 12 10 12 9 6 10 9 7 7 2 5 6 9 15 20 26 27 27 29 30 30 33 35 34 34
10 9 9 9 9 9 9 10 10 10 9 9 8 8 9 9 10 10 10 10 9 8 8 8 7 8 9 11 12 8 3 4 4 6 7 6 2 2 5 8 10 13 14 17 18 16 13 9 7 6 5 3 3 4 6 6 6 10 6 4 8 7 7 9 7 8 6 3 5 5 2 6 1 4 8 16 21 22 26 27 26 28 29 30 32 34 34 33
11 10 9 9 9 8 8 9 10 10 10 9 9 9 9 10 10 10 10 10 10 9 9 8 8 9 9 11 11 6 4 7 8 6 4 3 2 4 5 7 8 10 13 17 16 10 7 7 8 11 11 5 3 4 7 8 6 7 2 1 4 7 5 6 4 5 5 4 5 5 2 6 6 7 8 21 25 23 23 24 25 27 29 30 31 33 33 32
14 11 9 9 9 9 8 8 9 10 10 10 9 9 10 11 11 12 11 10 10 9 9 9 9 9 9 10 8 6 8 9 9 6 3 1 4 5 6 8 7 9 12 14 10 6 7 9 10 13 14 10 9 8 7 7 4 3 2 1 2 2 5 7 3 1 1 4 6 7 2 7 7 7 11 25 29 27 23 21 25 27 29 30 32 34 34 32
17 13 11 10 9 9 8 8 8 9 10 10 10 10 11 12 13 13 13 11 11 10 10 9 9 8 11 13 9 8 10 11 10 6 4 3 5 6 7 9 8 10 11 10 8 8 10 11 11 10 10 10 8 5 4 4 4 3 1 3 3 1 4 9 5 3 4 4 5 7 2 6 6 5 18 26 27 28 26 22 24 27 28 30 32 34 34 32
18 16 13 10 9 10 9 8 8 8 8 9 10 11 12 12 13 14 15 13 11 11 10 8 7 7 8 9 6 6 11 13 9 6 6 6 6 7 7 8 7 8 9 9 8 10 12 13 12 9 7 5 2 2 4 4 4 3 1 2 4 1 3 6 5 4 8 4 1 5 4 4 4 4 20 27 26 26 23 22 25 26 28 29 31 33 34 33
17 17 15 12 10 10 10 9 8 7 7 8 9 10 10 12 14 15 15 13 10 10 9 7 7 8 8 8 5 4 9 13 10 7 8 7 9 8 7 7 6 6 9 9 10 13 13 9 7 5 2 1 2 4 3 2 3 4 2 0 3 2 1 3 6 5 6 6 3 5 5 6 4 0 14 25 27 25 22 23 24 25 27 27 28 29 31 34
15 16 16 14 12 10 10 9 8 7 6 6 6 7 9 11 12 13 11 9 7 6 7 7 5 5 7 9 6 4 5 11 12 9 7 7 10 10 7 7 5 6 8 8 9 10 8 5 2 1 2 3 2 5 3 4 4 3 1 1 3 2 2 4 5 5 2 2 4 4 4 9 7 2 10 23 26 25 24 25 25 25 26 25 26 28 30 33
15 14 15 14 13 11 10 9 8 7 7 6 6 8 10 10 10 10 6 4 6 4 5 7 7 3 6 9 9 6 8 7 11 10 9 8 9 9 8 7 7 7 4 2 3 5 5 1 2 1 1 2 3 5 6 7 6 5 3 3 3 4 5 5 7 6 4 4 4 6 6 9 7 1 7 19 24 24 22 22 22 23 24 25 26 28 31 33
14 14 14 14 14 13 10 9 8 7 7 8 9 10 9 6 5 5 5 9 13 12 13 14 14 16 18 18 15 11 9 5 9 11 10 9 10 9 9 9 6 4 2 3 3 1 3 2 1 4 6 7 7 7 8 5 5 4 2 3 4 4 6 6 7 6 3 4 5 7 8 9 6 3 7 17 19 15 15 16 18 21 23 25 27 29 32 34
15 14 13 13 14 13 12 10 9 8 8 9 11 11 8 7 4 4 7 13 19 18 18 19 19 22 24 22 19 16 12 7 8 12 12 13 13 9 7 7 2 1 4 3 2 1 3 3 6 9 10 9 5 5 5 3 3 3 3 4 4 3 6 7 6 7 1 5 3 2 7 7 6 2 4 14 14 11 15 18 19 23 23 25 28 30 33 33
16 15 14 13 13 13 13 11 10 9 9 10 10 10 10 11 8 9 9 11 20 21 18 18 20 24 24 22 21 18 12 6 9 14 15 15 14 10 6 5 4 2 2 2 2 2 2 3 10 10 7 4 2 5 6 3 3 3 2 2 3 3 5 7 5 6 4 2 3 2 7 5 6 0 2 8 14 17 23 26 27 29 26 25 28 30 33 32
17 15 14 14 13 13 13 12 11 11 10 10 8 7 10 13 11 10 9 8 17 22 17 17 20 24 23 20 19 14 9 7 8 14 17 16 15 14 8 5 4 3 1 4 4 2 1 6 9 5 6 4 3 3 6 1 1 2 3 2 3 4 2 4 5 7 5 0 2 5 6 4 6 2 1 6 11 17 23 24 26 30 30 32 34 35 36 35
18 16 16 14 13 13 13 14 13 10 10 8 6 6 9 12 12 10 9 6 10 13 12 13 15 19 22 17 12 10 12 9 8 12 17 19 16 13 9 5 4 3 3 5 7 5 7 9 5 3 6 6 4 3 2 1 3 2 5 5 3 3 3 4 5 6 6 4 3 6 5 4 6 3 1 1 2 10 18 19 19 23 27 27 30 35 37 38
19 18 17 15 14 12 13 14 11 8 9 7 5 6 7 9 12 11 7 4 5 6 6 7 9 14 19 13 9 11 8 8 13 14 16 22 20 10 5 6 5 3 5 5 6 4 9 9 3 1 2 6 4 5 4 6 3 4 5 7 7 5 4 5 4 5 5 5 3 4 4 3 5 4 4 2 2 5 10 14 18 23 23 21 26 32 35 36
20 19 18 17 15 13 12 12 8 8 10 6 5 6 5 6 10 9 4 2 3 4 2 3 5 9 12 11 12 10 2 7 17 18 17 22 23 12 4 3 3 3 5 5 3 2 5 5 1 4 5 5 5 5 5 7 5 2 5 7 7 5 2 4 2 4 2 1 3 3 5 3 5 1 5 4 3 6 6 7 13 20 22 23 28 31 32 34
21 20 19 19 17 15 13 10 9 10 8 5 6 5 3 4 7 6 3 3 3 3 2 3 4 6 9 11 14 10 1 6 11 16 21 22 22 17 7 3 2 3 4 4 0 2 3 4 4 1 4 5 5 5 6 8 7 3 5 5 6 5 3 3 4 5 2 2 3 5 5 3 3 3 6 4 4 6 5 6 7 14 21 23 25 27 32 35
21 21 20 19 18 17 15 13 11 8 5 4 5 3 3 5 6 3 3 3 3 2 2 4 4 5 7 10 18 14 4 3 4 11 23 22 19 14 7 6 5 4 3 5 3 5 1 3 4 1 3 4 5 6 7 9 5 6 5 5 5 4 3 2 6 4 1 2 3 6 3 3 3 5 5 3 4 4 7 9 8 13 21 23 24 27 32 36
21 20 20 20 18 18 16 15 11 5 3 5 3 2 3 4 4 3 4 1 3 1 0 4 4 4 6 7 15 18 10 3 2 8 19 21 20 13 6 8 7 3 2 4 4 6 3 5 5 4 4 4 6 5 8 11 5 4 5 5 4 4 4 4 5 3 3 4 2 6 2 2 3 5 4 2 2 4 7 7 8 14 22 25 26 28 31 34
21 20 21 20 19 18 18 16 11 5 4 5 3 2 2 1 2 4 1 3 3 1 1 4 3 4 6 5 6 12 9 4 2 6 11 15 18 12 5 6 5 3 2 2 1 6 5 4 2 4 5 6 6 4 7 9 5 2 4 5 5 5 5 4 3 4 4 2 5 6 2 3 1 5 3 2 2 4 4 4 6 12 19 25 27 28 29 31
21 20 20 21 19 18 19 16 9 6 6 5 5 3 1 1 3 3 4 3 2 2 2 2 3 1 5 4 3 7 6 3 1 6 5 6 9 6 1 2 2 2 2 4 3 5 6 3 2 4 7 5 3 2 2 1 2 3 3 4 3 2 4 4 4 4 4 2 6 5 2 5 2 4 4 4 5 5 5 6 7 11 20 28 29 28 29 31
22 21 20 21 20 20 20 17 9 7 7 5 5 4 1 2 1 2 4 3 2 2 2 1 3 1 3 2 2 5 4 2 2 4 4 4 4 5 4 4 4 1 2 4 3 4 4 4 3 5 5 4 5 2 0 4 6 5 4 5 4 1 2 1 3 1 2 4 4 3 1 3 3 6 5 6 8 6 6 9 10 13 22 30 30 28 27 28
22 22 21 21 22 22 21 18 14 12 9 4 2 2 4 3 3 5 4 2 1 2 2 2 3 2 3 2 2 3 2 3 5 3 3 4 4 6 5 3 5 4 2 4 2 1 3 5 4 3 4 4 6 4 2 1 1 4 4 4 4 3 2 1 3 1 1 3 2 3 2 0 3 4 4 7 8 6 4 6 10 13 19 25 26 24 24 24
22 22 23 21 21 22 20 17 16 14 8 5 3 3 4 2 4 4 3 4 3 3 3 3 5 4 1 3 4 3 2 3 5 5 3 4 4 4 4 3 3 3 2 3 2 3 2 4 3 3 2 3 6 6 6 5 3 3 5 6 4 4 4 3 3 3 2 3 2 3 1 2 2 2 5 7 3 9 8 4 8 10 15 21 22 20 20 20
23 22 22 22 21 20 17 16 16 13 10 8 4 4 4 4 3 2 2 4 2 3 5 5 3 3 3 3 3 2 4 4 3 5 4 5 5 5 4 5 5 4 4 3 3 2 3 3 6 5 3 2 3 3 5 7 2 2 2 5 2 4 5 2 3 5 4 2 1 1 2 3 3 3 7 5 6 12 11 7 13 16 17 20 20 19 18 17
23 20 19 18 17 16 14 15 16 15 14 10 5 1 5 4 3 3 2 1 1 3 6 6 3 1 3 3 3 3 1 2 3 3 2 2 3 5 4 4 6 7 6 4 3 1 2 3 5 5 2 2 3 2 2 3 3 1 2 3 4 3 7 5 1 1 4 3 1 1 2 4 2 3 8 8 6 8 9 8 10 15 20 22 21 20 20 18
23 20 15 12 14 12 13 15 15 17 17 10 4 4 5 3 4 4 2 3 2 3 4 3 1 1 1 2 2 4 3 2 1 1 2 2 2 3 4 3 5 10 10 6 3 3 4 2 6 2 3 2 1 5 4 2 4 3 2 5 2 2 5 5 2 3 5 1 3 2 1 4 3 1 5 8 5 5 5 5 7 11 16 21 21 21 20 19
24 19 11 14 20 12 13 15 16 20 17 8 2 4 3 2 3 2 4 5 3 3 3 1 3 2 2 2 3 3 2 2 1 1 2 3 2 1 1 2 3 8 12 8 2 1 4 1 7 2 2 5 4 7 4 6 2 4 4 4 4 2 1 2 3 2 2 1 2 3 2 2 1 1 3 4 3 2 2 1 4 8 11 18 23 23 21 19
21 14 9 19 21 5 13 17 21 22 13 4 3 3 2 3 4 4 6 6 2 1 1 4 3 1 2 4 3 2 0 2 1 1 1 2 3 1 1 2 1 2 8 10 5 1 3 3 5 4 2 3 5 5 1 5 5 3 2 3 2 3 4 2 3 3 4 3 2 1 3 2 3 4 4 5 8 6 4 4 2 4 8 13 19 22 21 19
18 8 10 23 17 7 17 20 22 17 7 3 4 3 2 2 3 5 6 5 2 2 3 4 2 2 3 3 3 2 2 4 3 1 2 1 2 2 3 2 1 3 2 6 4 1 3 3 3 5 3 2 2 0 3 2 2 3 3 4 3 2 2 2 2 2 4 5 3 2 1 4 5 4 4 6 9 8 6 5 2 1 4 7 11 15 17 17
16 4 9 22 12 12 19 18 13 6 3 2 2 2 2 3 2 4 9 9 5 6 6 5 4 4 4 3 2 2 2 3 3 3 1 1 2 1 3 2 1 2 3 4 3 2 2 3 3 1 3 2 1 2 1 3 3 4 3 1 0 2 3 4 1 1 2 4 4 5 3 5 6 2 3 5 7 8 8 9 4 3 6 7 9 12 15 16
12 3 10 19 3 15 14 7 2 2 3 2 2 3 3 3 3 4 8 9 6 7 8 6 5 6 6 4 4 4 3 3 3 3 1 3 1 2 1 2 4 4 4 3 0 2 3 4 3 1 0 2 2 3 3 2 5 7 4 2 2 1 3 5 4 3 2 3 2 4 3 4 6 5 6 7 6 2 9 14 10 9 11 12 13 13 14 16
10 4 12 19 2 16 7 2 1 0 2 2 2 4 4 3 2 3 4 4 3 5 4 3 4 4 4 3 1 2 3 1 1 3 3 2 1 2 1 9 10 5 4 2 2 1 2 4 4 1 3 3 4 5 4 4 5 6 4 2 2 2 1 4 5 4 3 3 2 4 2 4 5 7 9 9 9 9 8 12 14 15 15 16 17 16 16 18
11 6 14 21 5 14 4 3 0 1 3 3 2 3 5 5 5 5 5 1 2 2 2 1 2 2 1 1 3 3 3 2 2 2 4 2 1 4 0 11 10 3 2 1 2 0 1 1 4 3 1 2 3 4 4 5 4 3 2 4 3 4 3 2 1 3 3 2 4 5 2 5 4 7 10 11 10 11 11 9 14 17 18 19 19 18 18 17
9 5 12 21 16 11 6 3 1 2 3 3 3 4 4 4 3 5 2 3 7 4 2 3 4 5 4 3 5 5 5 4 1 3 2 2 3 6 6 5 6 4 4 4 2 2 2 2 3 5 5 4 2 2 2 1 2 1 2 5 4 5 5 2 2 4 3 1 3 5 5 4 5 8 10 11 9 9 11 10 11 14 17 20 20 19 18 15
6 4 6 13 21 22 15 12 11 5 4 1 2 5 6 3 6 10 7 7 8 7 6 6 6 4 5 5 5 6 8 5 2 3 4 4 2 4 10 7 6 7 8 9 7 4 4 3 2 5 6 6 5 4 3 3 4 1 1 4 5 4 4 4 4 3 3 3 3 1 4 2 5 8 9 10 9 7 9 11 11 8 8 10 12 15 15 14
5 4 4 4 11 15 14 17 17 9 4 4 3 3 7 3 4 10 10 7 9 8 6 8 9 5 3 4 4 4 6 6 6 5 4 5 2 3 9 10 10 10 7 7 7 4 5 3 1 4 4 1 3 3 3 5 6 3 1 3 5 4 4 6 4 2 4 5 2 2 2 5 2 7 7 8 8 7 8 13 15 13 10 8 7 9 10 11
6 3 6 4 2 4 6 9 11 9 10 10 3 2 7 8 7 7 6 6 9 10 6 6 10 8 4 2 3 3 5 5 6 5 4 5 3 4 7 7 9 13 7 4 5 4 5 2 1 4 5 4 3 4 7 9 6 4 4 3 4 5 5 6 2 0 4 6 4 3 6 6 2 6 7 8 9 8 9 14 18 18 17 15 12 11 10 9
7 4 7 8 5 3 5 5 6 9 12 10 5 6 8 9 9 6 5 3 6 10 7 4 6 9 8 7 5 3 4 3 3 4 3 4 4 3 4 3 7 12 8 3 3 3 4 1 1 4 5 5 5 3 8 10 7 5 6 5 5 7 8 6 3 4 8 9 6 7 10 7 2 4 6 9 10 9 15 23 25 24 22 20 20 19 17 14
8 5 7 8 8 9 11 9 6 7 9 9 7 7 8 9 8 6 7 6 3 5 6 5 2 5 6 8 8 5 1 3 3 2 1 3 4 3 3 1 3 8 7 3 2 3 3 2 2 4 5 3 5 4 8 11 10 8 7 5 5 8 8 7 4 4 9 9 5 8 11 6 4 6 8 10 12 17 23 26 26 25 25 26 26 24 23 21
10 8 6 5 5 10 12 10 6 4 5 8 6 6 8 9 9 6 6 11 8 3 3 2 0 2 5 9 9 3 2 4 6 7 6 3 3 3 2 1 1 4 6 3 2 3 3 3 1 5 4 2 2 4 7 10 12 10 7 6 5 6 6 4 3 3 4 7 6 8 8 2 4 7 8 10 17 22 22 22 23 24 26 28 28 27 26 24
11 9 7 4 4 9 9 6 6 5 3 5 7 8 8 9 12 8 4 9 14 12 8 4 1 2 5 8 8 7 9 9 9 12 11 9 10 11 10 9 5 2 1 2 2 2 3 4 2 3 4 3 2 2 3 5 7 4 3 2 3 5 7 6 6 7 4 5 6 4 4 2 3 5 6 9 14 17 18 20 22 24 26 27 28 27 27 26
Wind_Direction
333 337 341 344 345 342 343 344 345 346 345 342 336 327 318 316 317 317 316 313 313 314 312 306 298 296 292 289 289 285 286 284 280 278 275 276 247 236 224 193 193 197 193 186 187 197 205 203 196 193 192 186 206 213 200 210 203 191 129 148 228 208 196 196 199 201 188 274 296 320 344 25 13 68 102 108 112 129 153 145 167 190 232 190 190 173 166 164
324 328 334 341 340 338 341 344 348 350 351 349 347 339 326 317 317 318 316 315 316 317 311 306 303 299 297 295 294 297 298 296 287 279 280 288 243 235 211 191 195 199 190 182 179 184 200 196 182 183 185 183 200 201 196 205 194 180 124 182 227 200 210 211 216 256 241 276 299 307 326 348 43 123 141 126 102 123 125 83 131 139 143 170 171 164 165 166
313 317 323 331 334 335 335 338 345 348 351 352 352 348 339 324 314 313 316 320 322 317 307 303 302 300 300 298 299 307 308 305 294 279 40 46 298 238 205 194 197 198 190 190 192 197 206 190 169 170 180 202 206 207 209 190 193 197 178 223 243 211 226 251 247 259 262 275 296 304 313 315 357 92 166 136 115 129 148 147 134 135 143 156 162 163 167 170
304 306 309 317 325 328 327 330 337 341 347 350 351 350 345 335 319 310 315 324 324 314 305 301 301 300 300 299 305 315 321 318 290 185 111 61 42 236 199 195 199 198 194 194 197 205 208 185 165 158 165 245 237 243 242 204 197 197 188 211 237 192 220 262 254 258 267 276 275 287 303 303 339 71 160 127 109 306 222 183 173 165 160 161 164 167 169 172
297 297 299 304 311 317 319 321 327 334 338 342 348 347 345 341 328 317 316 325 325 315 308 304 300 300 299 300 309 316 334 348 156 157 148 108 53 32 188 196 200 200 201 195 192 200 200 189 182 167 166 271 269 261 260 229 214 212 225 229 242 205 222 268 265 268 272 273 274 281 292 287 317 126 158 148 149 232 216 193 183 177 172 170 169 168 170 173
297 293 292 294 299 304 308 311 317 322 328 335 342 344 345 342 336 329 323 326 326 318 311 307 301 298 297 299 311 318 321 328 175 211 229 185 351 324 177 194 197 202 206 194 190 196 195 192 191 188 162 207 216 195 249 243 211 228 270 250 256 242 229 271 275 275 273 275 275 249 259 277 315 344 172 176 203 244 221 194 184 184 178 173 171 171 173 172
301 295 291 289 291 294 297 302 308 312 319 329 337 342 345 345 345 340 333 330 326 320 311 307 302 292 295 299 311 315 286 270 284 287 246 243 292 260 191 192 195 203 203 192 190 192 193 189 191 192 142 220 217 209 249 253 206 213 267 264 266 260 248 268 272 268 265 266 269 260 267 277 285 316 194 202 250 266 234 194 183 180 173 170 169 169 169 167
306 301 296 289 286 289 291 294 297 302 310 321 332 338 342 345 346 346 345 339 327 319 310 308 303 287 291 299 310 314 291 279 304 303 280 302 285 261 216 195 193 201 198 191 189 187 192 189 192 189 149 230 217 208 239 255 224 212 242 256 266 268 263 270 271 266 262 259 264 267 268 267 264 268 257 282 293 265 206 185 178 173 168 167 164 162 165 167
315 308 303 293 286 286 286 288 290 293 301 313 324 332 339 343 344 347 348 343 334 321 314 310 298 288 287 293 311 318 290 279 323 308 303 312 286 257 228 206 197 199 194 186 185 188 194 196 202 199 200 246 241 238 226 217 249 211 225 250 263 269 271 272 270 262 259 254 253 258 262 268 268 236 266 296 286 187 175 175 173 168 165 164 160 161 170 173
329 318 311 301 292 287 284 284 285 288 295 303 314 324 333 337 339 343 342 342 337 325 319 308 299 293 285 291 306 309 275 285 314 304 304 309 279 240 225 212 202 197 188 182 185 187 190 194 202 202 229 264 253 247 227 188 239 251 242 259 264 267 272 270 269 257 244 238 237 223 239 260 238 160 247 251 171 169 165 165 168 164 163 164 163 168 175 177
342 331 321 311 303 295 285 280 282 286 290 294 305 317 325 331 335 337 337 338 334 329 322 308 304 294 287 290 257 221 291 307 312 309 306 311 288 246 226 209 204 195 185 181 183 182 183 191 197 195 232 271 276 278 274 235 261 292 291 288 276 276 278 267 262 249 223 222 232 208 228 272 159 162 218 188 170 171 165 161 163 163 164 167 168 173 179 180
352 342 331 323 313 302 290 280 279 281 285 290 295 307 316 321 327 332 335 333 328 327 321 314 306 294 295 286 259 244 284 292 293 304 302 307 290 243 220 205 201 189 181 178 179 181 184 201 219 238 256 282 317 313 299 291 291 293 298 294 292 325 308 262 237 220 191 195 219 175 267 304 226 214 214 178 169 167 162 158 160 163 167 170 172 176 181 184
356 350 340 331 323 314 303 288 280 277 280 283 287 297 306 311 320 327 330 329 323 319 319 317 303 299 298 279 260 244 254 266 276 277 286 301 166 170 181 187 193 186 185 179 174 181 198 228 249 263 276 279 269 275 293 312 314 296 309 153 299 353 322 260 221 196 175 199 201 149 285 282 255 259 205 169 165 159 155 157 162 166 169 172 175 179 182 187
1 355 347 340 333 323 310 296 285 276 273 276 282 289 295 304 313 318 323 323 317 309 308 310 303 302 288 269 262 252 255 262 265 243 208 221 146 149 156 158 173 177 182 182 182 213 233 254 270 277 283 265 247 269 301 332 343 313 352 56 337 336 282 289 296 197 191 238 191 148 237 256 261 265 185 168 167 161 155 162 167 169 172 175 179 182 184 187
6 359 351 347 341 330 317 305 292 280 275 275 277 281 286 298 307 313 315 312 310 300 296 300 298 303 293 279 269 255 252 249 251 232 196 207 148 134 133 132 144 164 181 198 217 239 244 260 270 272 275 257 246 279 330 351 357 5 2 321 331 189 269 303 298 210 217 252 176 149 233 268 270 225 173 169 170 164 158 166 173 173 175 178 182 184 185 187
6 3 355 346 343 339 328 316 303 290 283 276 273 276 284 295 302 305 304 301 298 288 288 290 285 303 304 284 255 233 239 239 243 226 207 207 169 145 135 141 154 176 201 222 238 256 262 266 267 255 247 236 190 84 39 1 344 1 89 243 283 279 302 315 308 240 203 212 226 188 214 266 289 195 172 170 171 166 159 168 177 179 180 181 184 185 186 186
1 3 359 350 344 342 337 326 314 304 295 285 281 280 286 293 295 297 296 292 280 274 281 277 282 297 277 259 259 253 242 237 237 226 211 198 185 176 169 187 202 219 238 250 255 265 269 261 249 242 247 55 93 88 56 337 304 314 13 240 256 246 286 296 306 290 195 175 227 224 216 229 267 135 172 175 172 166 162 173 182 183 183 185 184 183 185 188
351 355 359 356 346 340 339 332 324 318 311 304 297 293 296 296 298 299 295 283 265 271 289 261 256 304 267 247 260 315 297 245 236 232 217 191 187 196 205 215 242 277 275 271 257 249 243 236 181 189 5 23 80 101 146 225 208 226 292 334 298 287 251 252 271 285 246 200 199 193 233 242 262 345 176 181 175 170 172 178 183 185 184 186 185 182 185 190
343 345 349 353 350 341 334 332 330 325 319 315 309 307 305 304 307 302 288 253 230 246 287 240 208 256 278 263 263 305 337 272 239 235 220 197 191 204 222 233 262 284 280 260 238 212 196 195 53 142 262 245 195 152 179 206 178 177 199 204 268 287 268 254 248 253 259 268 229 184 219 248 253 8 163 181 181 177 177 177 179 185 187 185 185 184 185 190
336 337 337 343 347 343 332 323 322 319 315 311 310 312 312 317 324 302 274 261 263 273 279 261 248 261 272 275 275 287 314 291 237 226 205 191 193 201 220 235 254 269 243 183 202 205 153 174 243 217 217 218 215 196 187 181 156 171 225 240 259 271 273 270 262 272 212 212 256 193 204 258 248 162 160 175 181 182 172 171 178 186 189 186 186 187 188 193
330 330 330 332 336 341 337 321 309 306 306 300 306 318 324 331 327 299 294 283 282 282 275 269 263 263 269 272 274 282 296 300 239 216 192 189 196 199 218 218 190 247 247 187 164 14 88 173 234 226 216 212 205 189 187 169 149 196 241 257 269 247 260 270 273 305 246 168 297 147 169 258 255 190 182 168 170 194 183 172 181 190 192 189 187 187 190 195
324 324 325 325 326 331 333 326 307 293 293 294 306 330 344 347 328 291 295 291 290 289 276 268 261 260 265 263 266 276 282 278 249 227 205 197 199 200 201 174 155 214 250 111 98 346 32 234 244 232 206 199 163 139 156 175 169 192 213 218 261 249 279 293 293 329 358 158 279 112 137 248 263 315 287 187 177 198 195 183 184 188 188 188 189 188 189 193
320 319 319 318 320 320 322 326 312 291 291 294 307 340 353 359 352 303 282 276 291 293 276 256 248 251 257 255 259 260 236 227 249 236 216 201 199 202 193 157 170 201 144 131 162 188 258 245 237 203 142 162 240 169 139 121 46 171 198 200 258 269 296 292 300 335 349 354 179 123 110 300 305 48 240 213 194 201 198 190 188 188 189 189 190 188 187 190
316 316 315 313 315 314 314 318 313 297 289 290 307 339 349 0 3 329 290 270 286 291 276 255 245 244 244 245 248 228 215 222 237 234 218 202 194 198 204 177 154 203 209 168 160 178 240 247 225 114 124 160 230 276 168 211 302 262 220 201 214 253 230 230 293 334 341 360 80 88 59 331 329 357 333 4 190 199 189 183 189 196 198 195 190 188 189 191
313 312 311 309 309 309 310 312 315 306 291 295 312 320 339 354 351 331 307 302 283 278 282 257 235 232 228 226 225 214 215 233 233 230 219 207 196 182 201 190 162 226 219 158 140 190 252 261 240 189 184 155 186 256 222 185 228 295 243 210 201 206 234 265 326 14 25 0 357 72 67 297 315 327 285 330 93 173 180 179 189 197 200 198 193 191 190 191
312 309 308 307 304 304 305 306 312 311 302 311 318 307 324 338 335 326 319 10 304 269 266 204 208 216 210 208 215 208 217 254 237 229 219 213 204 186 174 185 168 221 198 155 143 207 262 283 236 213 216 161 172 243 233 177 159 292 241 204 184 154 186 274 1 65 85 290 299 63 112 245 316 308 261 304 122 164 196 196 195 194 195 199 198 194 190 191
312 309 306 304 302 302 301 297 297 307 314 324 311 297 293 308 325 330 353 20 303 252 152 164 177 185 189 196 194 175 97 253 228 225 220 213 205 196 197 211 186 207 172 120 315 243 259 312 355 229 197 148 166 236 225 167 141 233 234 157 130 129 185 219 106 98 203 227 326 9 100 141 316 265 270 322 117 162 210 215 210 198 198 203 202 197 193 192
310 309 304 300 300 299 297 291 285 297 321 326 309 279 258 302 322 345 67 27 283 234 150 183 166 170 188 191 188 185 204 198 167 219 218 210 202 192 202 219 184 194 177 124 222 257 246 293 306 152 144 150 194 219 183 152 156 242 213 137 134 149 164 146 101 100 328 47 334 324 43 105 279 276 298 338 128 180 222 212 211 206 204 205 203 201 198 196
309 307 303 297 295 293 291 285 276 279 315 316 304 273 275 296 326 37 88 2 273 262 120 181 165 189 194 178 193 205 218 201 138 203 205 203 203 195 210 219 179 170 225 136 199 254 252 246 242 141 144 207 220 214 162 158 198 231 152 102 63 77 76 68 88 96 40 53 258 281 346 98 268 290 312 342 142 217 240 226 211 210 209 205 203 204 202 199
307 304 300 295 291 289 285 276 263 245 282 308 298 295 314 268 18 55 132 264 262 267 86 166 196 201 174 150 202 217 223 236 183 163 181 192 199 201 210 209 166 128 291 9 226 254 287 286 245 155 191 216 212 198 166 171 186 154 113 71 47 38 33 37 56 75 60 16 254 258 256 122 263 291 268 217 202 211 233 254 226 213 212 210 207 205 202 202
307 303 297 292 289 287 279 272 259 224 243 298 312 309 13 126 75 100 206 263 279 284 49 163 248 224 158 167 217 216 213 244 174 131 154 181 188 197 138 158 152 85 358 336 295 292 325 324 267 245 229 202 155 151 154 84 56 93 92 80 94 357 16 26 354 43 85 262 259 254 213 114 134 264 257 255 261 229 203 215 214 202 206 209 208 206 203 202
308 300 295 290 285 278 267 264 258 230 245 298 317 308 114 121 55 187 232 326 325 264 16 252 272 318 178 194 245 219 190 198 209 140 139 149 170 195 193 183 174 112 318 271 269 322 310 250 273 300 257 175 127 136 325 6 33 84 87 81 103 14 17 22 305 5 155 236 254 254 233 114 205 246 258 267 270 267 237 218 216 208 202 201 201 202 201 200
309 301 295 287 280 273 264 261 256 248 259 272 271 339 79 109 222 221 238 303 256 247 349 319 306 305 174 159 245 237 179 194 214 190 138 129 163 202 226 212 153 144 229 214 215 300 290 296 317 318 272 196 147 145 193 271 82 136 132 120 129 109 88 224 259 303 240 238 251 283 278 217 272 270 258 258 274 309 296 219 215 213 197 188 187 191 194 197
311 305 297 286 278 271 265 262 253 246 247 214 171 73 90 150 236 232 236 255 260 299 336 338 324 313 221 191 229 194 156 231 204 172 146 125 151 208 247 253 168 154 168 158 191 178 156 306 274 201 252 205 169 172 172 158 151 184 154 131 147 153 148 201 217 183 205 229 271 305 287 164 197 289 282 268 324 28 34 114 150 161 168 168 168 174 181 187
315 309 300 291 282 272 265 255 244 234 218 187 123 84 154 206 244 223 227 243 279 324 320 332 338 316 288 256 265 197 184 231 186 153 168 156 166 195 203 217 200 156 125 160 230 167 140 244 253 251 261 191 197 209 152 122 111 265 127 109 157 182 148 133 173 172 165 148 306 276 234 209 202 298 325 331 42 46 37 67 105 116 133 143 146 150 157 164
320 314 305 299 291 278 262 242 229 218 200 168 110 150 206 215 215 197 233 248 341 340 335 343 12 27 306 301 323 332 291 213 166 156 194 191 193 195 194 220 199 168 153 167 210 177 128 250 280 316 333 196 209 204 128 130 175 248 97 156 218 173 118 109 137 67 77 101 253 245 280 305 329 350 342 354 37 55 43 42 74 101 119 126 130 136 143 152
327 324 320 329 328 294 246 225 212 199 185 156 130 210 212 221 210 207 321 1 350 357 27 10 343 165 271 302 313 320 360 44 197 205 216 244 255 204 212 243 190 183 186 171 187 202 147 240 289 350 58 297 237 111 57 25 123 119 171 188 193 68 91 103 101 20 48 117 270 350 347 318 19 21 335 357 19 56 64 57 68 92 113 122 130 141 148 158
333 333 340 356 344 303 222 202 192 181 169 148 174 228 211 224 220 222 343 348 337 360 52 200 245 208 194 218 258 285 14 68 337 306 201 219 243 186 184 244 203 197 198 174 158 231 129 166 288 280 159 296 352 81 37 340 61 129 183 160 103 104 142 91 112 121 98 164 278 352 358 313 43 281 305 338 316 301 357 7 99 106 120 129 138 149 159 166
337 339 2 357 344 295 183 178 175 166 153 142 208 231 211 228 263 287 317 325 300 292 275 219 228 268 223 199 197 246 184 158 177 326 191 210 237 242 88 227 261 230 195 173 163 224 106 135 270 273 214 296 5 57 39 317 341 22 47 34 49 130 153 155 140 144 139 154 214 356 17 308 251 241 239 258 266 248 225 262 278 111 130 140 145 151 159 165
344 351 17 0 359 125 149 159 162 154 142 174 195 214 242 241 273 276 286 296 257 235 255 221 222 265 258 225 190 192 174 164 155 164 199 219 234 276 315 271 347 18 153 152 142 89 70 121 215 282 323 34 22 57 169 194 316 3 38 12 349 45 108 135 105 96 130 139 169 139 61 280 254 222 223 248 266 254 210 208 274 40 128 145 144 144 151 157
353 1 17 3 16 130 140 148 153 142 142 181 190 216 255 242 247 272 277 276 254 243 246 233 240 246 247 263 228 202 171 166 158 144 191 278 157 185 301 272 169 42 68 77 82 111 109 134 174 286 8 74 197 268 195 179 156 122 100 49 185 145 119 120 117 300 113 123 160 147 134 266 266 275 284 270 264 249 203 177 167 139 141 142 137 136 143 149
359 16 15 6 42 158 149 148 148 91 143 179 224 211 221 234 237 267 272 267 244 235 239 234 240 236 230 243 224 186 154 169 177 135 150 285 194 171 263 68 85 78 84 87 223 183 134 106 103 94 31 178 242 348 26 103 110 98 85 93 132 119 99 122 171 230 103 100 143 112 104 257 277 332 337 319 313 258 176 168 148 138 152 153 147 145 144 146
351 359 21 16 108 174 155 38 338 96 183 229 229 220 232 230 233 262 260 260 236 229 234 229 231 220 208 222 213 147 112 102 224 138 146 257 296 201 98 58 58 62 76 72 277 303 79 87 86 15 315 323 322 341 12 50 69 67 42 41 73 30 70 140 168 178 120 120 140 91 77 260 303 348 351 349 11 51 103 142 138 137 151 152 148 148 147 146
348 357 30 30 92 178 157 25 265 278 297 309 330 287 263 229 227 249 244 325 358 275 274 290 313 335 292 115 71 49 70 76 339 41 124 141 290 246 338 59 59 45 51 103 202 63 32 92 103 99 38 4 351 338 350 9 32 63 11 340 5 34 52 97 107 78 87 156 149 115 161 247 304 350 359 4 24 49 60 97 131 138 142 145 147 149 150 150
359 10 30 37 64 101 77 26 313 303 308 315 350 348 310 261 291 306 243 67 31 18 4 334 341 354 351 50 64 18 23 74 29 360 49 61 358 315 329 43 95 116 107 111 102 84 112 118 114 129 154 176 182 219 232 332 16 23 359 354 10 34 42 67 86 74 92 172 103 115 177 235 329 355 6 9 15 25 31 58 108 132 140 146 149 150 154 155
23 22 4 23 43 48 40 23 8 333 280 294 49 12 349 307 345 10 47 65 25 26 47 11 350 8 9 26 64 30 6 15 31 40 35 13 338 332 353 21 81 94 104 95 64 70 99 62 84 131 148 178 183 193 196 133 87 66 356 3 360 5 45 80 92 100 154 139 70 106 167 112 1 350 359 2 7 13 13 32 57 86 121 139 145 146 149 147
52 24 348 358 22 23 21 14 4 342 330 27 78 2 354 351 355 14 35 40 12 18 48 30 17 29 12 12 83 58 354 349 19 35 16 349 287 297 6 31 44 40 65 75 45 74 93 34 33 99 76 160 170 128 96 92 93 105 94 15 347 350 53 83 95 127 137 120 88 273 135 100 353 328 346 346 354 10 10 21 37 50 64 83 112 131 135 133
57 31 16 44 38 358 18 7 350 356 15 22 54 21 9 26 34 18 3 5 16 20 36 36 21 21 16 26 106 61 358 7 22 6 342 350 340 334 3 27 25 17 34 60 30 90 113 73 145 87 48 23 53 98 101 95 93 85 73 54 23 30 68 93 108 70 110 124 153 152 103 94 332 322 341 341 346 4 20 32 47 58 66 77 86 91 99 104
47 49 24 47 68 17 28 28 12 29 25 14 28 28 14 23 32 21 350 354 18 14 29 67 19 12 25 37 84 80 16 39 33 345 338 348 338 351 12 2 356 4 20 55 30 79 111 75 88 92 66 30 19 86 113 104 98 72 50 46 64 73 75 74 64 67 87 100 120 109 90 72 357 322 342 350 357 27 46 48 51 53 58 70 75 74 74 75
39 34 1 25 44 18 18 28 37 49 30 15 20 13 7 16 15 8 19 39 36 353 23 71 28 16 43 44 65 94 92 131 150 265 305 16 349 6 32 337 320 348 2 30 11 29 87 150 183 93 80 13 355 47 95 97 97 82 52 28 55 76 63 45 38 64 81 89 102 96 85 60 359 353 2 10 31 48 50 47 48 48 52 63 68 65 65 67
47 44 12 19 25 3 7 17 26 62 39 14 8 357 0 5 356 357 36 44 51 36 14 58 15 19 42 41 52 68 259 199 200 242 243 218 266 282 297 283 300 347 355 9 351 6 68 118 113 75 103 219 331 82 104 94 86 74 43 13 26 62 70 56 32 35 94 126 118 88 87 76 321 348 8 30 47 51 47 44 46 48 51 59 62 61 60 60
50 55 49 75 51 5 2 12 23 49 51 5 2 3 1 354 355 12 63 40 36 34 20 15 10 29 37 28 18 343 313 294 273 282 282 263 259 265 269 270 264 262 313 16 27 30 90 116 113 90 125 214 290 106 128 90 76 53 339 4 76 98 108 93 49 29 49 116 122 110 130 197 313 357 27 39 46 51 49 47 48 49 53 57 59 57 55 53